Tracking 29892 objects as of 21-Nov-2024
HD Live streaming from Space Station
objects crossing your sky now

STARLINK-1292

Track STARLINK-1292 now!
10-day predictions
STARLINK-1292 is classified as:


NORAD ID: 45394
Int'l Code: 2020-019AL
Perigee: 553.3 km
Apogee: 555.3 km
Inclination: 53.1 °
Period: 95.6 minutes
Semi major axis: 6925 km
RCS: Unknown
Launch date: March 18, 2020
Source: United States (US)
Launch site: AIR FORCE EASTERN TEST RANGE (AFETR)
Your satellite tracking list
Your tracking list is empty




NASA's NSSDC Master Catalog

Two Line Element Set (TLE):
1 45394U 20019AL  24325.44619516  .00001989  00000-0  15232-3 0  9992
2 45394  53.0530 115.5745 0001404  93.4790 266.6359 15.06409922258260
Source of the keplerian elements: AFSPC